Regional Weather Roundup
Issued by NWS

Home | Current Version | Previous Version | Graphics & Text | Print | Product List | Glossary On
Versions: 1 2 3 4 5 6 7 8 9 10 11 12 13 14 15 16 17 18 19 20 21 22 23 24 25 26 27 28 29 30 31 32 33 34 35 36 37 38 39 40 41 42 43 44 45 46 47 48
000
ASUS45 KSLC 251410
RWRUT

UTAH REGIONAL WEATHER ROUNDUP
NATIONAL WEATHER SERVICE SALT LAKE CITY UT
800 AM MDT SAT APR 25 2015

UTZ001>011-023>025-251500-

NORTHERN UTAH

CITY           SKY/WX    TMP DP  RH WIND       PRES   REMARKS
BRIGHAM CITY   MOSUNNY   44  40  87 CALM      29.82F
HILL AFB       PTSUNNY   42  39  86 SE5       29.81F
LOGAN          MOSUNNY   40  38  93 NE6       29.82S
OGDEN          MOSUNNY   44  38  79 S5        29.81F
PROVO AIRPORT  PTSUNNY   43  39  87 CALM      29.83S
SALT LAKE CITY PTSUNNY   44  39  82 SW3       29.81S
VERNAL         CLOUDY    44  37  76 N3        29.80R
WENDOVER       PTSUNNY   45  34  65 CALM      29.80F
HEBER CITY     PTSUNNY   36  34  93 NE3       29.83S
WEST JORDAN    SUNNY     43  43 100 CALM      29.83S

$$

UTZ012>022-026-027-251500-

SOUTHERN/CENTRAL UTAH

CITY           SKY/WX    TMP DP  RH WIND       PRES   REMARKS
BLANDING       CLOUDY    46  37  70 S9        29.97R
BRYCE CANYON   LGT RAIN  34  32  92 CALM      29.91R
CEDAR CITY     PTSUNNY   44  40  85 S5        29.82F
DELTA          CLOUDY    44  42  93 S9        29.82R
HANKSVILLE     MOSUNNY   50  43  76 CALM      29.86R
MILFORD        MOSUNNY   46  30  53 S13       29.80F
MOAB/CYNLANDS  CLOUDY    47  43  86 S3        29.84R
PRICE          MOSUNNY   45  33  63 CALM      29.83R
ST GEORGE      PTSUNNY   54  46  76 CALM      29.84S
KANAB          CLOUDY    46  46 100 CALM      29.91R

$$

REGIONAL REPORTS     COLORADO/ARIZONA

CITY           SKY/WX    TMP DP  RH WIND       PRES   REMARKS
CRAIG, CO      LGT RAIN  41  37  86 W8        29.85R
GRAND JUNCTION RAIN      44  43  96 N15       29.84R FOG
RIFLE          CLOUDY    43  34  70 CALM      29.83S
MONTROSE       CLOUDY    50  34  54 SW8       29.88R
CORTEZ         SUNNY     45  40  82 E3        29.93S
PAGE, AZ       CLOUDY    53  40  61 E3        29.86R
GRAND CANYON   PTSUNNY   41  36  82 SW10      29.95R
KINGMAN        SUNNY     53  39  59 S10       29.86S
FLAGSTAFF      CLOUDY    40  38  93 SW12      29.97S WCI  33

$$

REGIONAL REPORTS    NEVADA/IDAHO/WYOMING

CITY           SKY/WX    TMP DP  RH WIND       PRES   REMARKS
LAS VEGAS, NV  CLOUDY    59  36  42 S13G22    29.74S
ELY            PTSUNNY   33  32  96 S10       29.80F WCI  25
ELKO           LGT RAIN  38  34  85 E6        29.76S WCI  33
POCATELLO, ID  MOSUNNY   40  33  76 SW6       29.83R
BURLEY         SUNNY     38  32  79 SW7       29.80R WCI  33
EVANSTON, WY   MOSUNNY   32  31  96 SW9       29.83S WCI  24
ROCK SPRINGS   CLOUDY    37  28  70 W20       29.82S WCI  27

$$


USA.gov is the U.S. government's official web portal to all federal, state and local government web resources and services.